TimeCDT,TemperatureF,Dew PointF,Humidity,Sea Level PressureIn,VisibilityMPH,Wind Direction,Wind SpeedMPH,Gust SpeedMPH,PrecipitationIn,Events,Conditions,WindDirDegrees,DateUTC
12:53 AM,30.9,28.0,89,30.18,10.0,North,5.8,-,N/A,,Scattered Clouds,10,2013-04-04 05:53:00
1:09 AM,32.0,28.4,87,30.17,9.0,North,4.6,-,N/A,,Mostly Cloudy,360,2013-04-04 06:09:00
1:29 AM,32.0,28.4,87,30.17,9.0,North,5.8,-,N/A,,Mostly Cloudy,10,2013-04-04 06:29:00
1:45 AM,33.8,28.4,81,30.17,9.0,North,4.6,-,N/A,,Mostly Cloudy,350,2013-04-04 06:45:00
1:53 AM,33.1,28.9,85,30.18,9.0,NNW,4.6,-,N/A,,Overcast,330,2013-04-04 06:53:00
2:53 AM,32.0,28.9,88,30.18,6.0,NNW,4.6,-,N/A,,Overcast,340,2013-04-04 07:53:00
3:53 AM,32.0,28.0,85,30.16,7.0,WNW,3.5,-,N/A,,Overcast,300,2013-04-04 08:53:00
4:34 AM,30.2,26.6,86,30.15,6.0,NNW,4.6,-,N/A,,Scattered Clouds,330,2013-04-04 09:34:00
4:53 AM,28.9,26.1,89,30.15,6.0,NW,3.5,-,N/A,,Partly Cloudy,320,2013-04-04 09:53:00
5:53 AM,28.0,26.1,92,30.16,5.0,NNW,5.8,-,N/A,,Clear,330,2013-04-04 10:53:00
6:53 AM,28.9,26.1,89,30.18,5.0,WNW,3.5,-,N/A,,Partly Cloudy,300,2013-04-04 11:53:00
7:53 AM,28.0,26.1,92,30.20,5.0,NW,4.6,-,N/A,,Mostly Cloudy,320,2013-04-04 12:53:00
8:02 AM,28.4,26.6,93,30.19,6.0,NW,5.8,-,N/A,,Mostly Cloudy,310,2013-04-04 13:02:00
8:53 AM,35.1,32.0,89,30.21,7.0,NNW,8.1,-,N/A,,Overcast,330,2013-04-04 13:53:00
9:53 AM,39.0,33.1,79,30.22,8.0,Variable,3.5,-,N/A,,Mostly Cloudy,0,2013-04-04 14:53:00
10:00 AM,39.2,33.8,81,30.21,8.0,NW,5.8,-,N/A,,Scattered Clouds,320,2013-04-04 15:00:00
10:53 AM,45.0,34.0,65,30.21,9.0,WNW,6.9,-,N/A,,Clear,300,2013-04-04 15:53:00
11:53 AM,51.1,34.0,52,30.20,10.0,WNW,6.9,-,N/A,,Clear,300,2013-04-04 16:53:00
12:53 PM,57.0,35.1,44,30.17,10.0,Variable,5.8,-,N/A,,Clear,0,2013-04-04 17:53:00
1:53 PM,63.0,32.0,31,30.12,10.0,Variable,4.6,-,N/A,,Clear,0,2013-04-04 18:53:00
2:53 PM,69.1,28.9,22,30.08,10.0,North,13.8,17.3,N/A,,Clear,350,2013-04-04 19:53:00
3:53 PM,71.1,26.1,19,30.05,10.0,Variable,4.6,-,N/A,,Clear,0,2013-04-04 20:53:00
4:53 PM,73.0,26.1,17,30.05,10.0,North,9.2,-,N/A,,Partly Cloudy,10,2013-04-04 21:53:00
5:53 PM,72.0,27.0,19,30.05,10.0,North,6.9,-,N/A,,Partly Cloudy,10,2013-04-04 22:53:00
6:53 PM,71.1,26.1,19,30.06,10.0,North,10.4,-,N/A,,Partly Cloudy,360,2013-04-04 23:53:00
7:53 PM,66.0,26.1,22,30.07,10.0,ENE,9.2,-,N/A,,Partly Cloudy,60,2013-04-05 00:53:00
8:53 PM,59.0,26.1,28,30.07,10.0,East,9.2,-,N/A,,Partly Cloudy,90,2013-04-05 01:53:00
9:53 PM,54.0,34.0,47,30.10,10.0,SE,11.5,-,N/A,,Partly Cloudy,130,2013-04-05 02:53:00
10:53 PM,50.0,34.0,54,30.12,10.0,ESE,11.5,-,N/A,,Partly Cloudy,110,2013-04-05 03:53:00
11:53 PM,48.0,37.0,66,30.13,10.0,SSE,10.4,-,N/A,,Partly Cloudy,160,2013-04-05 04:53:00